Location: La B�doule
(43.2468°N, 5.5934°E)
Time: 09:22:09
(UTC+00:00)

Cosmos 1980 Rocket - Pass Details

Date: 07 June 2020
Orbit: 828 x 851 km, 71.0° (Epoch: 11 July)

Event Time Altitude Azimuth Distance (km) Brightness Sun altitude
Exits shadow 00:51:40 42° 230° (SW) 1,175 2.5 -21.7°
Maximum altitude 00:53:31 67° 297° (WNW) 904 2.3 -21.6°
Drops below altitude 10° 00:59:09 10° 20° (NNE) 2,467 5.8 -21.3°
Sets 01:01:38 0° 23° (NNE) 3,410 6.9 -21.1°
